Date String (YYYY-MM-DD hh:mm:ss) UTC,Instrument flags,absolute air pressure of the measurement (hPa),sample flow rate (lpm),inlet stack bypass flow (lpm),air temperature of the measurement (°C),ambient temperature measured by the external sensor (°C),aerosol sample conditioner tube jacket temperature (°C),OPC LED temperature (°C),internal box temperature (°C),relative humidity of the measurement (%),span deviation,mass concentration of particles derived from Lorenz-Mie calculation of OPC scattering (μg/m³),mass concentration of particles derived from Lorenz-Mie calculation of OPC scattering (μg/m³),mass concentration of particles derived from Lorenz-Mie calculation of OPC scattering (μg/m³)
DateTimeUTC,F1_M11,P_M11,Q1_M11,Q2_M11,T1_M11,T2_M11,T3_M11,T4_M11,T5_M11,U1_M11,ZSPAN_M11,X0_M11,X2_M11,X1_M11
2024-04-23 13:00:00,SystemResetWarning,0832.3,5.01,000.00,025.2,024.5,000.0,033.8,027.1,010.6,0000.0,0007.70,0002.92,0001.36
2024-04-23 13:01:00,SystemResetWarning,0832.3,5.01,000.00,025.2,024.5,000.0,033.8,027.1,010.8,0000.0,0007.59,0002.91,0001.36
2024-04-23 13:02:00,SystemResetWarning,0832.3,5.00,000.00,025.2,024.5,000.0,033.8,027.1,010.9,0000.0,0007.73,0002.99,0001.38
2024-04-23 13:03:00,SystemResetWarning,0832.3,5.00,000.00,025.3,024.5,000.0,033.8,027.1,011.3,0000.0,0007.80,0003.03,0001.40
2024-04-23 13:04:00,SystemResetWarning,0832.3,5.00,000.00,025.2,024.5,000.0,033.8,027.1,011.6,0000.0,0007.48,0003.06,0001.42
2024-04-23 13:05:00,SystemResetWarning,0832.3,4.99,000.00,025.2,024.5,000.0,033.8,027.1,011.5,0000.0,0007.28,0003.09,0001.42
2024-04-23 13:06:00,SystemResetWarning,0832.4,5.00,000.00,025.2,024.5,000.0,033.8,027.1,011.5,0000.0,0007.65,0003.13,0001.42
2024-04-23 13:07:00,SystemResetWarning,0832.4,5.00,000.00,025.3,024.5,000.0,033.8,027.1,010.7,0000.0,0007.75,0003.14,0001.42
2024-04-23 13:08:00,SystemResetWarning,0832.4,5.00,000.00,025.3,024.5,000.0,033.8,027.1,010.8,0000.0,0007.83,0003.13,0001.41
2024-04-23 13:09:00,SystemResetWarning,0832.4,5.01,000.00,025.3,024.5,000.0,033.8,027.1,011.2,0000.0,0008.66,0003.13,0001.42
2024-04-23 13:10:00,SystemResetWarning,0832.4,5.01,000.00,025.3,024.5,000.0,033.8,027.1,010.9,0000.0,0008.42,0003.15,0001.41
2024-04-23 13:11:00,SystemResetWarning,0832.4,4.99,000.00,025.3,024.5,000.0,033.8,027.1,011.2,0000.0,0008.16,0003.09,0001.40
2024-04-23 13:12:00,SystemResetWarning,0832.4,4.98,000.00,025.3,024.5,000.0,033.8,027.1,010.5,0000.0,0008.35,0003.10,0001.40
2024-04-23 13:13:00,SystemResetWarning,0832.5,5.00,000.00,025.3,024.5,000.0,033.8,027.1,010.6,0000.0,0008.81,0003.08,0001.39
2024-04-23 13:14:00,SystemResetWarning,0832.5,5.00,000.00,025.3,024.5,000.0,033.8,027.1,010.7,0000.0,0008.96,0003.10,0001.38
2024-04-23 13:15:00,SystemResetWarning,0832.6,5.01,000.00,025.3,024.5,000.0,033.8,027.1,011.2,0000.0,0009.39,0003.14,0001.36
2024-04-23 13:16:00,SystemResetWarning,0832.5,5.00,000.00,025.3,024.5,000.0,033.8,027.1,010.7,0000.0,0009.64,0003.12,0001.34
2024-04-23 13:17:00,SystemResetWarning,0832.5,5.00,000.00,025.3,024.6,000.0,033.8,027.1,010.6,0000.0,0009.54,0003.11,0001.34
2024-04-23 13:18:00,SystemResetWarning,0832.4,5.00,000.00,025.3,024.6,000.0,033.8,027.1,010.5,0000.0,0009.44,0003.08,0001.32
2024-04-23 13:19:00,SystemResetWarning,0832.4,5.00,000.00,025.3,024.6,000.0,033.8,027.2,010.5,0000.0,0009.59,0003.09,0001.32
2024-04-23 13:20:00,SystemResetWarning,0832.3,4.99,000.00,025.3,024.6,000.0,033.8,027.2,010.1,0000.0,0009.10,0003.11,0001.33
2024-04-23 13:21:00,SystemResetWarning,0832.3,4.99,000.00,025.3,024.6,000.0,033.8,027.2,010.2,0000.0,0009.98,0003.11,0001.34
2024-04-23 13:22:00,SystemResetWarning,0832.3,5.01,000.00,025.3,024.6,000.0,033.8,027.2,010.3,0000.0,0010.53,0003.14,0001.33
2024-04-23 13:23:00,SystemResetWarning,0832.3,5.02,000.00,025.3,024.6,000.0,033.8,027.2,010.8,0000.0,0010.97,0003.15,0001.32
2024-04-23 13:24:00,SystemResetWarning,0832.3,4.98,000.00,025.3,024.6,000.0,033.8,027.2,010.6,0000.0,0010.44,0003.12,0001.32
2024-04-23 13:25:00,SystemResetWarning,0832.3,4.99,000.00,025.3,024.6,000.0,033.8,027.2,010.2,0000.0,0010.12,0003.06,0001.32
2024-04-23 13:26:00,SystemResetWarning,0832.3,5.00,000.00,025.3,024.6,000.0,033.8,027.2,010.4,0000.0,0009.75,0002.92,0001.32
2024-04-23 13:27:00,SystemResetWarning,0832.3,5.00,000.00,025.3,024.6,000.0,033.8,027.2,010.4,0000.0,0009.12,0002.87,0001.32
2024-04-23 13:28:00,SystemResetWarning,0832.4,5.00,000.00,025.3,024.6,000.0,033.8,027.2,010.6,0000.0,0009.04,0002.85,0001.32
2024-04-23 13:29:00,SystemResetWarning,0832.5,5.00,000.00,025.3,024.6,000.0,033.8,027.2,010.1,0000.0,0008.97,0002.83,0001.33
2024-04-23 13:30:00,SystemResetWarning,0832.6,5.00,000.00,025.3,024.6,000.0,033.8,027.2,010.0,0000.0,0009.19,0002.83,0001.34
2024-04-23 13:31:00,SystemResetWarning,0832.6,5.00,000.00,025.3,024.6,000.0,033.8,027.2,010.0,0000.0,0009.06,0002.77,0001.34
2024-04-23 13:32:00,SystemResetWarning,0832.6,5.00,000.00,025.3,024.6,000.0,033.8,027.2,010.1,0000.0,0007.95,0002.71,0001.33
2024-04-23 13:33:00,SystemResetWarning,0832.7,4.99,000.00,025.3,024.7,000.0,033.8,027.2,010.3,0000.0,0007.31,0002.67,0001.34
2024-04-23 13:34:00,SystemResetWarning,0832.6,5.00,000.00,025.3,024.7,000.0,033.8,027.2,010.7,0000.0,0006.56,0002.57,0001.35
2024-04-23 13:35:00,SystemResetWarning,0832.7,5.00,000.00,025.3,024.7,000.0,033.8,027.2,010.3,0000.0,0007.58,0002.55,0001.34
2024-04-23 13:36:00,SystemResetWarning,0832.7,5.00,000.00,025.3,024.7,000.0,033.8,027.2,009.9,0000.0,0008.30,0002.61,0001.34
2024-04-23 13:37:00,SystemResetWarning,0832.7,5.00,000.00,025.3,024.7,000.0,033.8,027.2,010.2,0000.0,0008.70,0002.64,0001.32
2024-04-23 13:38:00,SystemResetWarning,0832.7,5.01,000.00,025.4,024.7,000.0,033.8,027.2,010.2,0000.0,0008.72,0002.67,0001.32
2024-04-23 13:39:00,SystemResetWarning,0832.8,5.01,000.00,025.4,024.7,000.0,033.9,027.2,010.3,0000.0,0008.63,0002.64,0001.31
2024-04-23 13:40:00,SystemResetWarning,0832.8,4.99,000.00,025.4,024.7,000.0,033.9,027.2,010.3,0000.0,0008.94,0002.59,0001.31
2024-04-23 13:41:00,SystemResetWarning,0832.7,4.99,000.00,025.4,024.7,000.0,033.9,027.2,010.0,0000.0,0008.60,0002.58,0001.29
2024-04-23 13:42:00,SystemResetWarning,0832.7,5.00,000.00,025.4,024.7,000.0,033.9,027.2,009.8,0000.0,0008.74,0002.54,0001.27
2024-04-23 13:43:00,SystemResetWarning,0832.7,5.00,000.00,025.4,024.7,000.0,033.9,027.2,010.1,0000.0,0009.15,0002.55,0001.27
2024-04-23 13:44:00,SystemResetWarning,0832.6,5.01,000.00,025.4,024.7,000.0,033.9,027.3,010.1,0000.0,0010.07,0002.55,0001.28
2024-04-23 13:45:00,SystemResetWarning,0832.6,4.99,000.00,025.4,024.7,000.0,033.9,027.3,010.1,0000.0,0011.21,0002.56,0001.27
2024-04-23 13:46:00,SystemResetWarning,0832.6,4.98,000.00,025.4,024.7,000.0,033.9,027.3,010.0,0000.0,0011.00,0002.66,0001.28
2024-04-23 13:47:00,SystemResetWarning,0832.6,5.00,000.00,025.4,024.7,000.0,033.9,027.3,010.2,0000.0,0010.75,0002.70,0001.28
2024-04-23 13:48:00,SystemResetWarning,0832.6,5.00,000.00,025.4,024.7,000.0,033.9,027.3,010.4,0000.0,0010.87,0002.74,0001.29
2024-04-23 13:49:00,SystemResetWarning,0832.6,5.01,000.00,025.4,024.7,000.0,033.9,027.3,010.3,0000.0,0011.64,0002.81,0001.30
2024-04-23 13:50:00,SystemResetWarning,0832.6,5.01,000.00,025.4,024.7,000.0,033.9,027.3,010.1,0000.0,0011.67,0002.87,0001.33
2024-04-23 13:51:00,SystemResetWarning,0832.6,5.00,000.00,025.4,024.7,000.0,033.9,027.3,010.2,0000.0,0011.34,0002.94,0001.34
2024-04-23 13:52:00,SystemResetWarning,0832.6,4.99,000.00,025.4,024.7,000.0,033.9,027.3,010.2,0000.0,0011.32,0002.91,0001.33
2024-04-23 13:53:00,SystemResetWarning,0832.6,5.00,000.00,025.4,024.7,000.0,033.9,027.3,010.2,0000.0,0011.29,0002.97,0001.34
2024-04-23 13:54:00,SystemResetWarning,0832.7,5.00,000.00,025.4,024.8,000.0,033.9,027.3,010.2,0000.0,0010.82,0002.95,0001.33
2024-04-23 13:55:00,SystemResetWarning,0832.7,4.99,000.00,025.4,024.8,000.0,033.9,027.3,010.3,0000.0,0010.48,0002.98,0001.32
2024-04-23 13:56:00,SystemResetWarning,0832.7,5.00,000.00,025.4,024.8,000.0,033.9,027.3,010.4,0000.0,0009.13,0002.96,0001.31
2024-04-23 13:57:00,SystemResetWarning,0832.7,4.99,000.00,025.4,024.8,000.0,033.9,027.3,010.4,0000.0,0008.61,0002.83,0001.30
2024-04-23 13:58:00,SystemResetWarning,0832.6,5.00,000.00,025.5,024.8,000.0,033.9,027.3,010.5,0000.0,0008.95,0002.72,0001.30
2024-04-23 13:59:00,SystemResetWarning,0832.6,5.00,000.00,025.5,024.8,000.0,033.9,027.3,011.1,0000.0,0008.55,0002.69,0001.30
